This is the latest recevied weather packets stored in our database for station/object KQ4OSL. If no packets are shown the sender has not sent any weather packets the latest 10 day(s).
| Time | Temp. | Humidity | Pressure | Rain* | Wind** | Luminosity | Snow |
|---|---|---|---|---|---|---|---|
| 1777741940 | 18.33° C | 48% | 1015 hPa | 0 mm | - | 766 W/m² | - |
| 1777741637 | 18.89° C | 52% | 1015.1 hPa | 0 mm | - | 765 W/m² | - |
| 1777741334 | 17.78° C | 55% | 1014.9 hPa | 0 mm | - | 762 W/m² | - |
| 1777741030 | 17.78° C | 54% | 1015.2 hPa | 0 mm | - | 761 W/m² | - |
| 1777740727 | 18.33° C | 56% | 1015.2 hPa | 0 mm | - | 753 W/m² | - |
| 1777740423 | 18.33° C | 55% | 1015.1 hPa | 0 mm | - | 754 W/m² | - |
| 1777740121 | 17.78° C | 55% | 1015.1 hPa | 0 mm | - | 753 W/m² | - |
| 1777739816 | 17.78° C | 56% | 1015.1 hPa | 0 mm | - | 752 W/m² | - |
| 1777739513 | 17.78° C | 54% | 1014.9 hPa | 0 mm | - | 745 W/m² | - |
| 1777739210 | 17.78° C | 54% | 1015 hPa | 0 mm | - | 744 W/m² | - |
| 1777738907 | 17.78° C | 55% | 1015.2 hPa | 0 mm | - | 739 W/m² | - |
| 1777738604 | 17.78° C | 58% | 1015 hPa | 0 mm | - | 737 W/m² | - |
| 1777738301 | 17.22° C | 59% | 1015.1 hPa | 0 mm | - | 419 W/m² | - |
| 1777737999 | 17.22° C | 57% | 1015.2 hPa | 0 mm | - | 566 W/m² | - |
| 1777737697 | 16.67° C | 58% | 1015.1 hPa | 0 mm | - | 564 W/m² | - |
| 1777737395 | 17.78° C | 57% | 1015.1 hPa | 0 mm | - | 700 W/m² | - |
| 1777737092 | 17.22° C | 55% | 1015.2 hPa | 0 mm | - | 711 W/m² | - |
| 1777736788 | 17.22° C | 57% | 1015.2 hPa | 0 mm | - | 703 W/m² | - |
| 1777736160 | 16.67° C | 60% | 1015 hPa | 0 mm | - | 515 W/m² | - |
| 1777735857 | 16.11° C | 60% | 1015 hPa | 0 mm | - | 303 W/m² | - |
| 1777735554 | 16.67° C | 60% | 1015 hPa | 0 mm | - | 475 W/m² | - |
| 1777735251 | 16.67° C | 60% | 1015 hPa | 0 mm | - | 682 W/m² | - |
| 1777734949 | 16.67° C | 62% | 1015.3 hPa | 0 mm | - | 662 W/m² | - |
| 1777734646 | 16.11° C | 61% | 1015.3 hPa | 0 mm | - | 677 W/m² | - |
| 1777734343 | 16.11° C | 65% | 1015.1 hPa | 0 mm | - | 527 W/m² | - |
* Rain latest hour (hover to see other rain measurements)
** Current wind speed in m/s (hover to see current wind gust speed)